GPS BIIA-10 (PRN 32) 1 20959U 90103A 10243.33701071 .00000037 00000-0 10000-3 0 8296 2 20959 54.8893 265.2482 0128678 305.5174 53.3396 2.00565272144737 GPS BIIA-11 (PRN 24) 1 21552U 91047A 10244.19527541 .00000050 00000-0 10000-3 0 8135 2 21552 54.3656 203.2625 0057357 331.4391 28.2186 2.00431551140336 GPS BIIA-14 (PRN 26) 1 22014U 92039A 10243.63473605 -.00000064 00000-0 10000-3 0 7236 2 22014 56.7171 324.2381 0196061 63.5908 298.4644 2.00568155126474 GPS BIIA-15 (PRN 27) 1 22108U 92058A 10243.73643472 -.00000053 00000-0 10000-3 0 6173 2 22108 56.1028 17.3698 0217170 280.5300 77.0481 2.00573237131659 GPS BIIA-21 (PRN 09) 1 22700U 93042A 10244.25991816 -.00000050 00000-0 10000-3 0 9609 2 22700 56.2339 18.7954 0169066 88.7479 273.2030 2.00560361125824 GPS BIIA-23 (PRN 04) 1 22877U 93068A 10243.89960820 .00000047 00000-0 10000-3 0 3061 2 22877 53.7915 200.3890 0092594 34.8455 325.7339 2.00555728123460 GPS BIIA-24 (PRN 06) 1 23027U 94016A 10243.10497997 .00000002 00000-0 10000-3 0 2797 2 23027 53.5567 137.3867 0064134 302.8809 56.5688 2.00565171120750 GPS BIIA-25 (PRN 03) 1 23833U 96019A 10244.12112986 -.00000002 00000-0 10000-3 0 4672 2 23833 53.1433 133.2626 0134640 58.6947 302.9304 2.00572590105759 GPS BIIA-26 (PRN 10) 1 23953U 96041A 10243.99805541 .00000046 00000-0 10000-3 0 9661 2 23953 54.5586 261.5695 0091659 36.9162 323.7566 2.00582654103545 GPS BIIA-27 (PRN 30) 1 24320U 96056A 10244.39487165 .00000012 00000-0 10000-3 0 6883 2 24320 54.8392 77.7731 0123571 86.5311 274.9333 2.00560194102213 GPS BIIR-02 (PRN 13) 1 24876U 97035A 10243.48958312 -.00000064 00000-0 10000-3 0 4407 2 24876 56.8477 324.4572 0041926 103.9659 256.5602 2.00558911 96066 GPS BIIA-28 (PRN 08) 1 25030U 97067A 10243.62284633 -.00000042 00000-0 10000-3 0 3640 2 25030 56.9452 24.5769 0112861 180.6478 179.3575 2.00564376 93966 GPS BIIR-03 (PRN 11) 1 25933U 99055A 10243.76810959 .00000028 00000-0 10000-3 0 8842 2 25933 50.8952 186.5785 0108450 47.1095 313.7868 2.00552351 79888 GPS BIIR-04 (PRN 20) 1 26360U 00025A 10244.35539487 .00000050 00000-0 10000-3 0 9796 2 26360 53.6357 258.3773 0038901 74.3327 286.1349 2.00577820 75590 GPS BIIR-05 (PRN 28) 1 26407U 00040A 10243.69927783 .00000011 00000-0 10000-3 0 9259 2 26407 55.6549 82.3943 0162490 249.0906 109.2294 2.00563061 74254 GPS BIIR-06 (PRN 14) 1 26605U 00071A 10243.30768788 -.00000064 00000-0 10000-3 0 9382 2 26605 56.4580 323.1826 0057436 239.1640 120.3308 2.00577188 71849 GPS BIIR-07 (PRN 18) 1 26690U 01004A 10243.16872523 .00000038 00000-0 10000-3 0 8187 2 26690 53.6392 261.5177 0119616 228.7884 130.2135 2.00558087 70259 GPS BIIR-08 (PRN 16) 1 27663U 03005A 10242.52893859 .00000005 00000-0 10000-3 0 2172 2 27663 55.7569 82.0092 0061415 349.9525 9.9952 2.00567883 55595 GPS BIIR-09 (PRN 21) 1 27704U 03010A 10243.08909854 .00000049 00000-0 10000-3 0 1086 2 27704 53.4199 201.0030 0170246 220.4166 138.3073 2.00566669 54396 GPS BIIR-10 (PRN 22) 1 28129U 03058A 10243.21227830 .00000038 00000-0 10000-3 0 7042 2 28129 53.5071 261.7824 0057664 249.5198 109.9019 2.00557972 49101 GPS BIIR-11 (PRN 19) 1 28190U 04009A 10244.16458513 .00000000 00000-0 10000-3 0 6730 2 28190 54.8925 144.8438 0066975 353.5049 6.4614 2.00551609 47290 GPS BIIR-12 (PRN 23) 1 28361U 04023A 10243.45146657 -.00000062 00000-0 10000-3 0 4928 2 28361 55.4111 320.8407 0070080 178.7177 181.3669 2.00565888 45360 GPS BIIR-13 (PRN 02) 1 28474U 04045A 10243.94248670 .00000046 00000-0 10000-3 0 3716 2 28474 53.8408 199.3691 0095466 180.4443 179.5276 2.00569045 42731 GPS BIIRM-1 (PRN 17) 1 28874U 05038A 10244.79121495 -.00000002 00000-0 10000-3 0 6426 2 28874 55.0311 141.6771 0054957 219.5168 140.1536 2.00566472 36174 GPS BIIRM-2 (PRN 31) 1 29486U 06042A 10243.90757902 -.00000048 00000-0 10000-3 0 9649 2 29486 56.0282 20.5606 0075046 298.9057 60.3545 2.00555726 28853 GPS BIIRM-3 (PRN 12) 1 29601U 06052A 10243.85395672 .00000012 00000-0 10000-3 0 130 2 29601 55.6853 80.9503 0033141 345.2908 14.6168 2.00568721 27769 GPS BIIRM-4 (PRN 15) 1 32260U 07047A 10243.16364390 -.00000062 00000-0 00000+0 0 7427 2 32260 54.5965 319.3414 0025634 345.6081 14.3821 2.00549248 21142 GPS BIIRM-5 (PRN 29) 1 32384U 07062A 10242.98524225 .00000006 00000-0 10000-3 0 7618 2 32384 55.0455 142.2262 0031269 286.3371 73.3871 2.00561595 19862 GPS BIIRM-6 (PRN 07) 1 32711U 08012A 10243.57857908 -.00000050 00000-0 10000-3 0 6081 2 32711 55.7242 20.5724 0039237 179.1009 180.9217 2.00560993 18081 GPS BIIRM-7 (PRN 01) 1 34661U 09014A 10243.00409578 .00000006 00000-0 10000-3 0 5397 2 34661 55.3417 80.1297 0043342 52.8831 307.5690 2.00570602 10583 GPS BIIRM-8 (PRN 05) 1 35752U 09043A 10245.04197644 .00000054 00000-0 10000-3 0 2867 2 35752 54.8443 260.0815 0018659 4.2344 355.8053 2.00552151 7692 GPS BIIF-1 (PRN 25) 1 36585U 10022A 10244.38928314 .00000013 00000-0 10000-3 0 1205 2 36585 55.0380 79.4026 0005086 124.6995 235.4170 2.00549965 1927